www.pogodaiklimat.ru

Погода и климат >> Архив погоды >> ОАЭ >> Абу-Даби


АРХИВ ПОГОДЫ в Абу-Даби

Время (UTC), дата Ветер
(напр.,м/с)
 
Видим.   Явления Облачность Т
(С)
Тd
(С)
f
(%)
Тe
(С)
Тes
(С)
Комфортность P
(гПа)
Po
(гПа)
Тmin
(С)
Tmax
(С)
R
(мм)
R24
(мм)
S
(см)
21 15.02 В 4 10 км 1/0
[Ac trans]
+19.8 +13.1 65 +22 +22 комфорт 1015.2 1012.3
00 16.02 В 2 10 км 3/0
[Ac trans]
+18.5 +12.3 67 +20 +20 тепло 1015.3 1012.4
03 16.02 ЮВ 5 10 км 4/0
[Ac trans]
+19.2 +9.2 52 +20 +20 тепло 1016.8 1013.9
06 16.02 ЮВ 10 6000 м пыль 6/0
[Ac trans]
+23.2 +13.8 55 +27 +27 душно 1017.0 1014.1 +17.2
09 16.02 ЮВ 9 7000 м пыль 3/3 1050 м
[Sc Ac trans]
+28.1 +12.7 39 +30 +31 жарко 1014.5 1011.7
12 16.02 Ю 7 10 км 4/0
[Ac trans]
+29.9 +9.7 28 +30 +31 жарко 1011.6 1008.8
15 16.02 Ю 5 10 км 6/0
[Ac trans]
+28.2 +9.3 31 +28 +28 жарко 1012.8 1010.0
18 16.02 ЮВ 3 10 км 6/0
[Ac trans]
+25.8 +10.6 38 +27 +27 жарко 1014.8 1011.9 +30.3
21 16.02 СВ 3 10 км в посл. час дождь {гроза} 5/1 1350 м
[Sc Ac trans]
+23.1 +13.4 54 +26 +26 жарко 1014.0 1011.1
00 17.02 В 4 10 км {гроза, дождь} 4/0 450 м
[Ac trans]
+20.8 +16.3 75 +24 +24 комфорт 1012.6 1009.7 0.0
03 17.02 Ю 2 10 км 3/0
[Ac trans]
+20.7 +12.8 61 +24 +24 комфорт 1013.9 1011.0
06 17.02 Ю 6 10 км 6/0
[Ac trans]
+22.6 +14.1 59 +26 +28 жарко 1015.5 1012.6 +20.2
09 17.02 З 4 10 км в посл. час дождь 8/0
[Ac trans]
+26.5 +12.0 40 +28 +33 жарко 1013.5 1010.6
12 17.02 СЗ 8 10 км слаб. ливневой дождь 8/3 600 м
[Sc Ac trans]
+23.7 +17.8 70 +28 +28 душно 1012.4 1009.5 0.0
15 17.02 СЗ 6 8000 м в посл. час дождь {ливн. осадки} 9/3 300 м
[Frnb Ac trans]
+21.9 +19.5 86 +27 +27 душно 1013.4 1010.5
18 17.02 СЗ 6 10 км 9/4 900 м
[Sc Ac trans]
+21.0 +13.3 61 +24 +24 комфорт 1014.9 1012.0 +27.3
21 17.02 СЗ 6 10 км 6/4 1200 м
[Sc Ac trans]
+19.6 +11.7 60 +21 +21 комфорт 1014.9 1012.0
00 18.02 СЗ 5 10 км 4/0
[Ac trans]
+18.5 +11.9 65 +19 +19 тепло 1014.1 1011.2 0.0
03 18.02 СЗ 5 10 км 3/0
[Ac trans]
+18.1 +11.5 65 +18 +18 по сезону 1015.3 1012.4
06 18.02 З 7 10 км 1/0
[Ac trans]
+20.8 +8.6 45 +22 +25 комфорт 1016.3 1013.4 +17.9
09 18.02 СЗ 8 10 км 4/0
[Ci fib]
+22.4 +8.3 40 +24 +26 комфорт 1014.3 1011.4
12 18.02 СЗ 8 10 км 6/0
[Ac trans Ci]
+21.7 +10.4 49 +23 +24 комфорт 1011.7 1008.8
15 18.02 СЗ 4 10 км 6/0
[Ac trans Ci fib]
+20.0 +10.0 53 +21 +21 комфорт 1011.5 1008.6
18 18.02 З 3 10 км 5/0
[Ac trans]
+19.4 +10.8 57 +21 +21 комфорт 1012.0 1009.1 +22.7
21 18.02 З 2 10 км 3/0
[Ac trans]
+18.9 +11.1 61 +20 +20 тепло 1011.3 1008.4
00 19.02 ЮЗ 2 10 км 5/0
[Ac trans]
+18.0 +10.9 63 +19 +19 тепло 1010.4 1007.5
03 19.02 Ю 3 10 км 8/0
[Ac trans Ci fib]
+16.5 +10.9 69 +16 +17 прохладно 1010.9 1008.0
06 19.02 Ю 2 10 км 8/0
[Ac trans Ci]
+19.8 +11.7 60 +22 +29 комфорт 1011.9 1009.0 +16.5
09 19.02 нст 2 10 км 8/0
[Ac trans Ci fib]
+22.1 +11.0 49 +24 +33 комфорт 1009.8 1006.9
12 19.02 СЗ 5 10 км 8/0
[Ac trans]
+21.8 +13.6 60 +25 +26 комфорт 1009.1 1006.2
15 19.02 СЗ 4 10 км 6/0
[Ac trans]
+20.3 +13.6 65 +23 +23 комфорт 1010.7 1007.8
18 19.02 З 5 10 км 6/0
[Ac trans]
+19.8 +13.8 68 +21 +21 комфорт 1013.5 1010.6 +23.2
21 19.02 СЗ 7 10 км 3/0
[Ci fib]
+19.1 +11.3 61 +20 +20 тепло 1014.2 1011.3
00 20.02 СЗ 8 10 км ясно +19.0 +12.4 66 +19 +19 тепло 1014.1 1011.2
03 20.02 СЗ 8 10 км 1/1 900 м
[Sc]
+18.3 +11.7 65 +18 +18 по сезону 1015.4 1012.5
06 20.02 СЗ 11 7000 м пыль 3/3 1050 м
[Sc]
+20.2 +10.4 53 +21 +21 комфорт 1017.5 1014.6 +18.3
09 20.02 СЗ 9 8000 м пыль 3/3 1200 м
[Sc]
+21.0 +10.6 51 +22 +23 комфорт 1017.3 1014.4
12 20.02 СЗ 9 8000 м пыль 3/3 1050 м
[Sc]
+20.5 +10.7 53 +22 +22 комфорт 1016.7 1013.8
15 20.02 СЗ 6 10 км 4/4 1200 м
[Sc]
+19.3 +10.2 56 +20 +20 по сезону 1017.8 1014.9
18 20.02 СЗ 3 10 км 5/5 1200 м
[Sc]
+18.4 +10.6 60 +19 +19 по сезону 1019.7 1016.7 +21.8
21 20.02 З 2 10 км 5/5 1200 м
[Sc]
+17.8 +11.2 65 +19 +19 тепло 1019.5 1016.5
00 21.02 З 4 10 км 3/3 1200 м
[Sc]
+17.3 +10.3 63 +17 +17 по сезону 1019.3 1016.3
03 21.02 СЗ 4 10 км 4/4 1200 м
[Sc]
+17.2 +10.2 63 +17 +17 по сезону 1020.6 1017.6
06 21.02 З 2 10 км 3/3 1350 м
[Sc]
+20.2 +10.2 53 +22 +30 комфорт 1022.7 1019.8 +15.5
09 21.02 З 5 10 км 3/3 1350 м
[Sc]
+21.4 +9.8 48 +23 +29 комфорт 1020.9 1018.0
12 21.02 СЗ 0 н/о +21.0 +9.7 48 +23 +25 комфорт 1011.7 1011.4 +30.6
15 21.02 СЗ 5 10 км ясно +19.2 +10.6 57 +20 +20 прохладно 1019.9 1017.0
18 21.02 СЗ 4 10 км 3/0
[Ci fib]
+18.3 +10.7 61 +19 +19 по сезону 1020.4 1017.4 +22.0
21 21.02 С 1 10 км 1/0
[Ci fib]
+16.5 +11.1 70 +18 +18 по сезону 1019.7 1016.7
00 22.02 Ю 2 10 км 3/0
[Ac trans]
+15.3 +10.5 73 +15 +15 по сезону 1018.6 1015.6
03 22.02 ЮЗ 3 8000 м мгла 4/0
[Ac trans Ci fib]
+13.4 +9.7 78 +12 +12 очень
холодно
1019.6 1016.6
06 22.02 З 2 10 км 3/0
[Ac trans]
+19.6 +11.7 60 +22 +30 комфорт 1021.3 1018.4 +13.2
09 22.02 СЗ 2 10 км 4/0
[Ac trans Ci fib]
+22.7 +7.5 38 +24 +37 комфорт 1018.9 1016.0
12 22.02 З 4 10 км 5/0
[Ac trans Ci fib]
+22.7 +11.3 49 +25 +27 комфорт 1016.4 1013.5
15 22.02 С 5 10 км 8/0
[Ci sp]
+19.8 +12.4 62 +21 +21 комфорт 1016.6 1013.7
18 22.02 СВ 3 10 км 9/0
[Ac trans]
+19.5 +12.4 64 +21 +21 комфорт 1017.6 1014.7 +24.4

 

Местоположение метеостанции Абу-Даби (ОАЭ): широта 24.43 долгота 54.65 высота над уровнем моря 27 м.

В архиве по умолчанию представлена погода в Абу-Даби за последнюю неделю. Архивные данные за месяц целиком и за предыдущие месяцы, начиная с января 2011 года, Вы можете получить, выбрав интересующий диапазон дат из раскрывающегося списка и нажав кнопку "Ввод!".


*Определитесь, кто Вы:
робот инопланетянин человек

Внимание! Время в таблицах - всемирное. Для получения местного времени необходимо прибавить поправку, которая равна 4 ч.

Смотрите также архив погоды в соседних городах и на ближайших метеорологических станциях:

Погода в Абу-Даби Батин аэропорту (ОАЭ) (19 км)
Погода в Аль-Мактум аэропорту (ОАЭ) (73 км)
Погода в Эль-Айне (ОАЭ) (98 км)
Погода в Дубае (ОАЭ) (114 км)
Погода в Эль-Бурайми (Оман) (117 км)
Погода в Шардже (ОАЭ) (133 км)
Погода на Острове Абу-Муса (Иран) (157 км)
Погода на Острове Сирри (Иран) (165 км)
Погода в Кумейре (Оман) (167 км)
Погода в Рай-эль-Хайма аэропорту (ОАЭ) (185 км)

Пояснения к столбцам:

Ветер - указаны скорость ветра в м/с - средняя за 10 мин, порывы в срок и между сроками (в фигурных скобках) и направление, откуда дует ветер: С - северный, СВ - северо-восточный, В - восточный, ЮВ - юго-восточный, Ю - южный, ЮЗ - юго-западный, З - западный, СЗ - северо-западный.
Видимость - горизонтальная дальность видимости в метрах или километрах. При видимости от 1 до 10 км при отсутствии осадков обычно наблюдается дымка, при ухудшении видимости до 1 км и менее - туман. В сухую погоду видимость может ухудшаться дымом, пылью или мглою.
Явления - указаны атмосферные явления, наблюдавшиеся в срок или в последний час перед сроком; фигурными скобками обозначены явления, наблюдавшиеся между сроками (за 1-3 часа до срока); квадратными скобками обозначены град или гололедные отложения с указанием их диаметра в мм.
Облачность - указаны через наклонную черту общая и нижняя облачность в баллах и высота нижней границы облаков в метрах; квадратными скобками обозначены формы облаков: Ci - перистые, Cs - перисто-слоистые, Cc - перисто-кучевые, Ac - высококучевые, As - высокослоистые, Sc - слоисто-кучевые, Ns - слоисто-дождевые, Cu - кучевые, Cb - кучево-дождевые. Подробнее классификацию облаков см. в Атласе облаков (PDF).
T - Температура воздуха - температура, измеренная на высоте 2 м над землей.
Td - Температура точки росы - температура, при понижении до которой содержащийся в воздухе водяной пар достигнет насыщения.
f - Относительная влажность воздуха - влажноcть воздуха, измеренная на высоте 2 м над землей.
Te - Эффективная температура - температура, которую ощущает одетый по сезону человек в тени. Характеристика душности погоды. При расчете учитывается влияние влажности воздуха и скорости ветра на теплоощущения человека.
Tes - Эффективная температура на солнце - температура, которую ощущает человек, с поправкой на солнечный нагрев. Характеристика знойности погоды. Зависит от высоты солнца над горизонтом, облачности и скорости ветра. Ночью, в пасмурную погоду, а также при ветре 12 м/с и более поправка равна нулю.
P - Атмосферное давление - приведенное к уровню моря атмосферное давление.
Po - Атмосферное давление - измеренное на уровне метеостанции атмосферное давление.
Tmin - Минимальная температура - минимум температуры воздуха на высоте 2 м над землей.
Tmax - Максимальная температура - максимум температуры воздуха на высоте 2 м над землей.
R - Количество осадков - Количество выпавших осадков за период времени, мм. При наведении курсора мыши на число - период времени, за который выпало указанное количество осадков.
R24 - Количество осадков - Количество выпавших осадков за 24 часа, мм.
S - Снежный покров - Высота снежного покрова, см. При наведении курсора мыши на число - состояние снежного покрова и степень покрытия местности в баллах.